Time,TemperatureF,DewpointF,PressureIn,WindDirection,WindDirectionDegrees,WindSpeedMPH,WindSpeedGustMPH,Humidity,HourlyPrecipIn,Conditions,Clouds,dailyrainin,SoftwareType,DateUTC
2013-07-16 00:00:00,70.9,63.7,29.95,North,0,0.0,0.0,78,0.00,,,0.00,WUHU216HW,2013-07-16 04:00:00,
2013-07-16 00:01:00,70.9,63.7,29.95,North,0,0.0,0.0,78,0.00,,,0.00,WUHU216HW,2013-07-16 04:01:00,
2013-07-16 00:03:00,70.9,64.1,29.95,North,0,0.0,0.0,79,0.00,,,0.00,WUHU216HW,2013-07-16 04:03:00,
2013-07-16 00:04:00,70.9,64.1,29.95,North,0,0.0,0.0,79,0.00,,,0.00,WUHU216HW,2013-07-16 04:04:00,
2013-07-16 00:09:00,70.7,63.9,29.95,North,0,0.0,0.0,79,0.00,,,0.00,WUHU216HW,2013-07-16 04:09:00,
2013-07-16 00:14:00,70.6,63.7,29.95,North,0,0.0,0.0,79,0.00,,,0.00,WUHU216HW,2013-07-16 04:14:00,
2013-07-16 00:19:00,70.6,63.7,29.95,North,0,0.0,0.0,79,0.00,,,0.00,WUHU216HW,2013-07-16 04:19:00,
2013-07-16 00:24:00,70.4,63.9,29.95,North,0,0.0,0.0,80,0.00,,,0.00,WUHU216HW,2013-07-16 04:24:00,
2013-07-16 00:29:00,70.4,63.9,29.95,North,0,0.0,0.0,80,0.00,,,0.00,WUHU216HW,2013-07-16 04:29:00,
2013-07-16 00:34:00,70.4,63.9,29.95,North,0,0.0,0.0,80,0.00,,,0.00,WUHU216HW,2013-07-16 04:34:00,
2013-07-16 00:39:00,70.2,63.7,29.95,North,0,0.0,0.0,80,0.00,,,0.00,WUHU216HW,2013-07-16 04:39:00,
2013-07-16 00:44:00,70.2,63.7,29.95,North,0,0.0,0.0,80,0.00,,,0.00,WUHU216HW,2013-07-16 04:44:00,
2013-07-16 00:48:00,70.2,63.7,29.95,North,0,0.0,0.0,80,0.00,,,0.00,WUHU216HW,2013-07-16 04:48:00,
2013-07-16 00:53:00,70.0,63.5,29.95,North,0,0.0,0.0,80,0.00,,,0.00,WUHU216HW,2013-07-16 04:53:00,
2013-07-16 00:58:00,69.8,63.7,29.95,North,0,0.0,0.0,81,0.00,,,0.00,WUHU216HW,2013-07-16 04:58:00,
2013-07-16 01:03:00,69.7,63.6,29.95,North,0,0.0,0.0,81,0.00,,,0.00,WUHU216HW,2013-07-16 05:03:00,
2013-07-16 01:08:00,69.3,63.2,29.95,North,0,0.0,0.0,81,0.00,,,0.00,WUHU216HW,2013-07-16 05:08:00,
2013-07-16 01:13:00,69.1,63.4,29.95,North,0,0.0,0.0,82,0.00,,,0.00,WUHU216HW,2013-07-16 05:13:00,
2013-07-16 01:19:00,68.9,63.2,29.95,North,0,0.0,0.0,82,0.00,,,0.00,WUHU216HW,2013-07-16 05:19:00,
2013-07-16 01:24:00,68.9,63.2,29.95,North,0,0.0,0.0,82,0.00,,,0.00,WUHU216HW,2013-07-16 05:24:00,
2013-07-16 01:29:00,68.8,63.1,29.95,North,0,0.0,0.0,82,0.00,,,0.00,WUHU216HW,2013-07-16 05:29:00,
2013-07-16 01:34:00,68.8,63.1,29.95,North,0,0.0,0.0,82,0.00,,,0.00,WUHU216HW,2013-07-16 05:34:00,
2013-07-16 01:39:00,68.8,63.1,29.95,North,0,0.0,0.0,82,0.00,,,0.00,WUHU216HW,2013-07-16 05:39:00,
2013-07-16 01:44:00,68.8,63.1,29.95,North,0,0.0,0.0,82,0.00,,,0.00,WUHU216HW,2013-07-16 05:44:00,
2013-07-16 01:49:00,68.6,62.9,29.95,North,0,0.0,0.0,82,0.00,,,0.00,WUHU216HW,2013-07-16 05:49:00,
2013-07-16 01:54:00,68.4,62.7,29.95,North,0,0.0,0.0,82,0.00,,,0.00,WUHU216HW,2013-07-16 05:54:00,
2013-07-16 01:59:00,68.4,62.7,29.95,North,0,0.0,0.0,82,0.00,,,0.00,WUHU216HW,2013-07-16 05:59:00,
2013-07-16 02:04:00,68.0,62.7,29.95,North,0,0.0,0.0,83,0.00,,,0.00,WUHU216HW,2013-07-16 06:04:00,
2013-07-16 02:09:00,68.0,62.7,29.95,North,0,0.0,0.0,83,0.00,,,0.00,WUHU216HW,2013-07-16 06:09:00,
2013-07-16 02:14:00,68.0,62.7,29.95,North,0,0.0,0.0,83,0.00,,,0.00,WUHU216HW,2013-07-16 06:14:00,
2013-07-16 02:19:00,67.9,62.6,29.95,North,0,0.0,0.0,83,0.00,,,0.00,WUHU216HW,2013-07-16 06:19:00,
2013-07-16 02:24:00,67.7,62.4,29.95,North,0,0.0,0.0,83,0.00,,,0.00,WUHU216HW,2013-07-16 06:24:00,
2013-07-16 02:29:00,67.5,62.2,29.95,North,0,0.0,0.0,83,0.00,,,0.00,WUHU216HW,2013-07-16 06:29:00,
2013-07-16 02:34:00,67.5,62.2,29.95,North,0,0.0,0.0,83,0.00,,,0.00,WUHU216HW,2013-07-16 06:34:00,
2013-07-16 02:39:00,67.5,62.2,29.95,North,0,0.0,0.0,83,0.00,,,0.00,WUHU216HW,2013-07-16 06:39:00,
2013-07-16 02:44:00,67.5,62.2,29.95,North,0,0.0,0.0,83,0.00,,,0.00,WUHU216HW,2013-07-16 06:44:00,
2013-07-16 03:00:00,67.0,61.9,29.95,North,0,0.0,0.0,84,0.00,,,0.00,WUHU216HW,2013-07-16 07:00:00,
2013-07-16 03:05:00,66.6,61.6,29.95,North,0,0.0,0.0,84,0.00,,,0.00,WUHU216HW,2013-07-16 07:05:00,
2013-07-16 03:10:00,66.6,61.6,29.95,North,0,0.0,0.0,84,0.00,,,0.00,WUHU216HW,2013-07-16 07:10:00,
2013-07-16 03:15:00,66.6,61.6,29.94,North,0,0.0,0.0,84,0.00,,,0.00,WUHU216HW,2013-07-16 07:15:00,
2013-07-16 03:20:00,66.4,61.4,29.94,North,0,0.0,0.0,84,0.00,,,0.00,WUHU216HW,2013-07-16 07:20:00,
2013-07-16 03:25:00,66.4,61.4,29.94,North,0,0.0,0.0,84,0.00,,,0.00,WUHU216HW,2013-07-16 07:25:00,
2013-07-16 03:30:00,66.2,61.2,29.94,North,0,0.0,0.0,84,0.00,,,0.00,WUHU216HW,2013-07-16 07:30:00,
2013-07-16 03:35:00,66.2,61.2,29.94,North,0,0.0,0.0,84,0.00,,,0.00,WUHU216HW,2013-07-16 07:35:00,
2013-07-16 03:40:00,66.1,61.0,29.94,North,0,0.0,0.0,84,0.00,,,0.00,WUHU216HW,2013-07-16 07:40:00,
2013-07-16 03:45:00,66.1,61.0,29.95,North,0,0.0,0.0,84,0.00,,,0.00,WUHU216HW,2013-07-16 07:45:00,
2013-07-16 03:50:00,65.9,60.9,29.95,North,0,0.0,0.0,84,0.00,,,0.00,WUHU216HW,2013-07-16 07:50:00,
2013-07-16 03:55:00,65.9,60.9,29.94,North,0,0.0,0.0,84,0.00,,,0.00,WUHU216HW,2013-07-16 07:55:00,
2013-07-16 04:00:00,65.7,60.8,29.94,North,0,0.0,0.0,84,0.00,,,0.00,WUHU216HW,2013-07-16 08:00:00,
2013-07-16 04:05:00,65.5,60.6,29.94,North,0,0.0,0.0,84,0.00,,,0.00,WUHU216HW,2013-07-16 08:05:00,
2013-07-16 04:10:00,65.5,60.8,29.94,North,0,0.0,0.0,85,0.00,,,0.00,WUHU216HW,2013-07-16 08:10:00,
2013-07-16 04:15:00,65.5,60.8,29.94,North,0,0.0,0.0,85,0.00,,,0.00,WUHU216HW,2013-07-16 08:15:00,
2013-07-16 04:20:00,65.2,60.6,29.94,North,0,0.0,0.0,85,0.00,,,0.00,WUHU216HW,2013-07-16 08:20:00,
2013-07-16 04:25:00,65.2,60.6,29.94,North,0,0.0,0.0,85,0.00,,,0.00,WUHU216HW,2013-07-16 08:25:00,
2013-07-16 04:30:00,65.2,60.6,29.94,North,0,0.0,0.0,85,0.00,,,0.00,WUHU216HW,2013-07-16 08:30:00,
2013-07-16 04:35:00,65.0,60.4,29.94,North,0,0.0,0.0,85,0.00,,,0.00,WUHU216HW,2013-07-16 08:35:00,
2013-07-16 04:40:00,64.8,60.2,29.94,North,0,0.0,0.0,85,0.00,,,0.00,WUHU216HW,2013-07-16 08:40:00,
2013-07-16 04:45:00,64.8,60.2,29.95,North,0,0.0,0.0,85,0.00,,,0.00,WUHU216HW,2013-07-16 08:45:00,
2013-07-16 04:50:00,64.8,60.2,29.95,North,0,0.0,0.0,85,0.00,,,0.00,WUHU216HW,2013-07-16 08:50:00,
2013-07-16 05:00:00,64.6,59.7,29.95,North,0,0.0,0.0,84,0.00,,,0.00,WUHU216HW,2013-07-16 09:00:00,
2013-07-16 05:05:00,64.6,59.7,29.95,North,0,0.0,0.0,84,0.00,,,0.00,WUHU216HW,2013-07-16 09:05:00,
2013-07-16 05:10:00,64.4,59.9,29.94,North,0,0.0,0.0,85,0.00,,,0.00,WUHU216HW,2013-07-16 09:10:00,
2013-07-16 05:15:00,64.4,59.9,29.94,North,0,0.0,0.0,85,0.00,,,0.00,WUHU216HW,2013-07-16 09:15:00,
2013-07-16 05:20:00,64.4,59.9,29.94,North,0,0.0,0.0,85,0.00,,,0.00,WUHU216HW,2013-07-16 09:20:00,
2013-07-16 05:25:00,64.4,59.9,29.95,North,0,0.0,0.0,85,0.00,,,0.00,WUHU216HW,2013-07-16 09:25:00,
2013-07-16 05:30:00,64.3,59.7,29.95,North,0,0.0,0.0,85,0.00,,,0.00,WUHU216HW,2013-07-16 09:30:00,
2013-07-16 05:35:00,64.3,59.7,29.95,North,0,0.0,0.0,85,0.00,,,0.00,WUHU216HW,2013-07-16 09:35:00,
2013-07-16 05:40:00,64.3,59.7,29.95,North,0,0.0,0.0,85,0.00,,,0.00,WUHU216HW,2013-07-16 09:40:00,
2013-07-16 06:00:00,64.1,59.5,29.95,North,0,0.0,0.0,85,0.00,,,0.00,WUHU216HW,2013-07-16 10:00:00,
2013-07-16 06:05:00,64.1,59.5,29.95,North,0,0.0,0.0,85,0.00,,,0.00,WUHU216HW,2013-07-16 10:05:00,
2013-07-16 06:10:00,63.9,59.3,29.95,North,0,0.0,0.0,85,0.00,,,0.00,WUHU216HW,2013-07-16 10:10:00,
2013-07-16 06:15:00,63.9,59.3,29.96,North,0,0.0,0.0,85,0.00,,,0.00,WUHU216HW,2013-07-16 10:15:00,
2013-07-16 06:20:00,63.9,59.7,29.95,North,0,0.0,0.0,86,0.00,,,0.00,WUHU216HW,2013-07-16 10:20:00,
2013-07-16 06:25:00,63.9,59.7,29.96,North,0,0.0,0.0,86,0.00,,,0.00,WUHU216HW,2013-07-16 10:25:00,
2013-07-16 06:30:00,63.9,59.7,29.96,North,0,0.0,0.0,86,0.00,,,0.00,WUHU216HW,2013-07-16 10:30:00,
2013-07-16 06:35:00,63.9,59.7,29.96,North,0,0.0,0.0,86,0.00,,,0.00,WUHU216HW,2013-07-16 10:35:00,
2013-07-16 06:40:00,63.9,59.7,29.96,North,0,0.0,0.0,86,0.00,,,0.00,WUHU216HW,2013-07-16 10:40:00,
2013-07-16 07:00:00,64.6,60.7,29.96,North,0,0.0,0.0,87,0.00,,,0.00,WUHU216HW,2013-07-16 11:00:00,
2013-07-16 07:05:00,64.8,60.8,29.96,North,0,0.0,0.0,87,0.00,,,0.00,WUHU216HW,2013-07-16 11:05:00,
2013-07-16 07:10:00,65.0,61.0,29.96,North,0,0.0,0.0,87,0.00,,,0.00,WUHU216HW,2013-07-16 11:10:00,
2013-07-16 07:15:00,65.2,61.2,29.96,North,0,0.0,0.0,87,0.00,,,0.00,WUHU216HW,2013-07-16 11:15:00,
2013-07-16 07:20:00,65.3,61.8,29.96,North,0,0.0,0.0,88,0.00,,,0.00,WUHU216HW,2013-07-16 11:20:00,
2013-07-16 07:25:00,65.5,61.8,29.96,North,0,0.0,0.0,88,0.00,,,0.00,WUHU216HW,2013-07-16 11:25:00,
2013-07-16 07:30:00,65.5,61.8,29.96,North,0,0.0,0.0,88,0.00,,,0.00,WUHU216HW,2013-07-16 11:30:00,
2013-07-16 07:35:00,65.9,62.2,29.96,North,0,0.0,0.0,88,0.00,,,0.00,WUHU216HW,2013-07-16 11:35:00,
2013-07-16 07:40:00,65.9,62.2,29.96,North,0,0.0,0.0,88,0.00,,,0.00,WUHU216HW,2013-07-16 11:40:00,
2013-07-16 07:45:00,66.2,62.6,29.97,North,0,0.0,0.0,88,0.00,,,0.00,WUHU216HW,2013-07-16 11:45:00,
2013-07-16 07:50:00,66.6,62.9,29.97,North,0,0.0,0.0,88,0.00,,,0.00,WUHU216HW,2013-07-16 11:50:00,
2013-07-16 07:55:00,67.1,63.5,29.97,North,0,0.0,0.0,88,0.00,,,0.00,WUHU216HW,2013-07-16 11:55:00,
2013-07-16 08:00:00,67.5,63.5,29.97,North,0,0.0,0.0,87,0.00,,,0.00,WUHU216HW,2013-07-16 12:00:00,
2013-07-16 08:05:00,68.0,64.0,29.97,North,0,0.0,0.0,87,0.00,,,0.00,WUHU216HW,2013-07-16 12:05:00,
2013-07-16 08:10:00,68.4,64.0,29.97,North,0,0.0,0.0,86,0.00,,,0.00,WUHU216HW,2013-07-16 12:10:00,
2013-07-16 08:15:00,69.3,64.9,29.97,North,0,0.0,0.0,86,0.00,,,0.00,WUHU216HW,2013-07-16 12:15:00,
2013-07-16 08:20:00,69.8,65.1,29.97,North,0,0.0,0.0,85,0.00,,,0.00,WUHU216HW,2013-07-16 12:20:00,
2013-07-16 08:25:00,70.6,65.4,29.96,North,0,0.0,0.0,84,0.00,,,0.00,WUHU216HW,2013-07-16 12:25:00,
2013-07-16 08:30:00,71.1,66.0,29.97,North,0,0.0,0.0,84,0.00,,,0.00,WUHU216HW,2013-07-16 12:30:00,
2013-07-16 08:35:00,72.0,66.3,29.97,North,0,0.0,0.0,82,0.00,,,0.00,WUHU216HW,2013-07-16 12:35:00,
2013-07-16 08:40:00,72.7,67.0,29.97,North,0,0.0,0.0,82,0.00,,,0.00,WUHU216HW,2013-07-16 12:40:00,
2013-07-16 08:45:00,73.6,67.5,29.97,North,0,0.0,0.0,81,0.00,,,0.00,WUHU216HW,2013-07-16 12:45:00,
2013-07-16 08:50:00,74.2,67.7,29.96,North,0,0.0,0.0,80,0.00,,,0.00,WUHU216HW,2013-07-16 12:50:00,
2013-07-16 08:55:00,75.1,68.2,29.96,North,0,0.0,0.0,79,0.00,,,0.00,WUHU216HW,2013-07-16 12:55:00,
2013-07-16 09:00:00,75.1,67.8,29.96,North,0,0.0,0.0,78,0.00,,,0.00,WUHU216HW,2013-07-16 13:00:00,
2013-07-16 09:05:00,76.0,67.9,29.96,North,0,0.0,0.0,76,0.00,,,0.00,WUHU216HW,2013-07-16 13:05:00,
2013-07-16 09:10:00,76.3,67.8,29.96,North,0,0.0,0.0,75,0.00,,,0.00,WUHU216HW,2013-07-16 13:10:00,
2013-07-16 09:15:00,76.7,67.4,29.96,North,0,0.0,0.0,73,0.00,,,0.00,WUHU216HW,2013-07-16 13:15:00,
2013-07-16 09:20:00,77.0,67.3,29.96,North,0,0.0,0.0,72,0.00,,,0.00,WUHU216HW,2013-07-16 13:20:00,
2013-07-16 09:25:00,77.4,66.1,29.96,North,0,0.0,0.0,68,0.00,,,0.00,WUHU216HW,2013-07-16 13:25:00,
2013-07-16 09:30:00,78.3,66.4,29.96,North,0,0.0,0.0,67,0.00,,,0.00,WUHU216HW,2013-07-16 13:30:00,
2013-07-16 09:35:00,78.5,66.6,29.96,North,0,0.0,0.0,67,0.00,,,0.00,WUHU216HW,2013-07-16 13:35:00,
2013-07-16 09:40:00,78.5,66.6,29.96,North,0,0.0,0.0,67,0.00,,,0.00,WUHU216HW,2013-07-16 13:40:00,
2013-07-16 10:00:00,85.1,70.7,29.97,North,0,0.0,0.0,62,0.00,,,0.00,WUHU216HW,2013-07-16 14:00:00,
2013-07-16 10:05:00,85.0,70.9,29.97,North,0,0.0,0.0,63,0.00,,,0.00,WUHU216HW,2013-07-16 14:05:00,
2013-07-16 10:10:00,85.5,71.0,29.97,North,0,0.0,0.0,62,0.00,,,0.00,WUHU216HW,2013-07-16 14:10:00,
2013-07-16 10:15:00,87.1,71.6,29.97,North,0,0.0,0.0,60,0.00,,,0.00,WUHU216HW,2013-07-16 14:15:00,
2013-07-16 10:20:00,87.7,71.6,29.96,North,0,0.0,0.0,59,0.00,,,0.00,WUHU216HW,2013-07-16 14:20:00,
2013-07-16 10:25:00,87.7,71.6,29.96,North,0,0.0,0.0,59,0.00,,,0.00,WUHU216HW,2013-07-16 14:25:00,
2013-07-16 10:30:00,88.2,72.2,29.97,North,0,0.0,0.0,59,0.00,,,0.00,WUHU216HW,2013-07-16 14:30:00,
2013-07-16 10:35:00,88.9,72.3,29.97,North,0,0.0,0.0,58,0.00,,,0.00,WUHU216HW,2013-07-16 14:35:00,
2013-07-16 10:40:00,89.5,71.6,29.97,North,0,0.0,0.0,56,0.00,,,0.00,WUHU216HW,2013-07-16 14:40:00,
2013-07-16 10:45:00,89.8,71.5,29.96,North,0,0.0,0.0,55,0.00,,,0.00,WUHU216HW,2013-07-16 14:45:00,
2013-07-16 10:50:00,90.2,70.7,29.96,North,0,0.0,0.0,53,0.00,,,0.00,WUHU216HW,2013-07-16 14:50:00,
2013-07-16 10:55:00,90.5,72.1,29.96,North,0,0.0,0.0,55,0.00,,,0.00,WUHU216HW,2013-07-16 14:55:00,
2013-07-16 11:00:00,90.9,71.9,29.96,North,0,0.0,0.0,54,0.00,,,0.00,WUHU216HW,2013-07-16 15:00:00,
2013-07-16 11:05:00,91.3,71.6,29.96,North,0,0.0,0.0,53,0.00,,,0.00,WUHU216HW,2013-07-16 15:05:00,
2013-07-16 11:10:00,91.6,71.5,29.96,North,0,0.0,0.0,52,0.00,,,0.00,WUHU216HW,2013-07-16 15:10:00,
2013-07-16 11:15:00,91.4,71.8,29.96,North,0,0.0,0.0,53,0.00,,,0.00,WUHU216HW,2013-07-16 15:15:00,
2013-07-16 11:20:00,91.8,71.7,29.96,North,0,0.0,0.0,52,0.00,,,0.00,WUHU216HW,2013-07-16 15:20:00,
2013-07-16 11:25:00,92.0,71.8,29.96,North,0,0.0,0.0,52,0.00,,,0.00,WUHU216HW,2013-07-16 15:25:00,
2013-07-16 11:30:00,92.2,71.4,29.96,North,0,0.0,0.0,51,0.00,,,0.00,WUHU216HW,2013-07-16 15:30:00,
2013-07-16 11:35:00,92.3,71.6,29.96,North,0,0.0,0.0,51,0.00,,,0.00,WUHU216HW,2013-07-16 15:35:00,
2013-07-16 11:40:00,92.5,71.7,29.96,North,0,0.0,0.0,51,0.00,,,0.00,WUHU216HW,2013-07-16 15:40:00,
2013-07-16 11:45:00,92.5,71.7,29.96,North,0,0.0,0.0,51,0.00,,,0.00,WUHU216HW,2013-07-16 15:45:00,
2013-07-16 11:50:00,92.5,71.7,29.96,North,0,0.0,0.0,51,0.00,,,0.00,WUHU216HW,2013-07-16 15:50:00,
2013-07-16 12:00:00,93.8,72.4,29.96,North,0,0.0,0.0,50,0.00,,,0.00,WUHU216HW,2013-07-16 16:00:00,
2013-07-16 12:05:00,94.3,73.4,29.95,North,0,0.0,0.0,51,0.00,,,0.00,WUHU216HW,2013-07-16 16:05:00,
2013-07-16 12:10:00,95.0,73.0,29.95,North,0,0.0,0.0,49,0.00,,,0.00,WUHU216HW,2013-07-16 16:10:00,
2013-07-16 12:15:00,95.6,73.4,29.95,North,0,0.0,0.0,49,0.00,,,0.00,WUHU216HW,2013-07-16 16:15:00,
2013-07-16 12:20:00,95.8,70.9,29.95,North,0,0.0,0.0,45,0.00,,,0.00,WUHU216HW,2013-07-16 16:20:00,
2013-07-16 12:25:00,94.3,71.6,29.95,North,0,0.0,0.0,48,0.00,,,0.00,WUHU216HW,2013-07-16 16:25:00,
2013-07-16 12:30:00,93.6,71.6,29.95,North,0,0.0,0.0,49,0.00,,,0.00,WUHU216HW,2013-07-16 16:30:00,
2013-07-16 12:35:00,93.1,71.0,29.95,North,0,0.0,0.0,49,0.00,,,0.00,WUHU216HW,2013-07-16 16:35:00,
2013-07-16 12:40:00,93.1,71.0,29.95,North,0,0.0,0.0,49,0.00,,,0.00,WUHU216HW,2013-07-16 16:40:00,
2013-07-16 13:00:00,94.7,71.3,29.95,North,0,0.0,0.0,47,0.00,,,0.00,WUHU216HW,2013-07-16 17:00:00,
2013-07-16 13:05:00,94.7,71.3,29.95,North,0,0.0,0.0,47,0.00,,,0.00,WUHU216HW,2013-07-16 17:05:00,
2013-07-16 13:10:00,95.2,71.1,29.95,North,0,0.0,0.0,46,0.00,,,0.00,WUHU216HW,2013-07-16 17:10:00,
2013-07-16 13:15:00,95.4,71.3,29.94,North,0,0.0,0.0,46,0.00,,,0.00,WUHU216HW,2013-07-16 17:15:00,
2013-07-16 13:20:00,95.4,71.9,29.94,North,0,0.0,0.0,47,0.00,,,0.00,WUHU216HW,2013-07-16 17:20:00,
2013-07-16 13:25:00,95.6,71.5,29.95,North,0,0.0,0.0,46,0.00,,,0.00,WUHU216HW,2013-07-16 17:25:00,
2013-07-16 13:30:00,95.8,69.6,29.95,North,0,0.0,0.0,43,0.00,,,0.00,WUHU216HW,2013-07-16 17:30:00,
2013-07-16 13:35:00,95.8,70.3,29.94,North,0,0.0,0.0,44,0.00,,,0.00,WUHU216HW,2013-07-16 17:35:00,
2013-07-16 13:40:00,95.6,71.5,29.94,North,0,0.0,0.0,46,0.00,,,0.00,WUHU216HW,2013-07-16 17:40:00,
2013-07-16 13:45:00,96.1,71.9,29.94,North,0,0.0,0.0,46,0.00,,,0.00,WUHU216HW,2013-07-16 17:45:00,
2013-07-16 13:50:00,96.3,70.1,29.94,North,0,0.0,0.0,43,0.00,,,0.00,WUHU216HW,2013-07-16 17:50:00,
2013-07-16 13:55:00,96.5,71.6,29.94,North,0,0.0,0.0,45,0.00,,,0.00,WUHU216HW,2013-07-16 17:55:00,
2013-07-16 14:00:00,96.8,71.3,29.94,North,0,0.0,0.0,44,0.00,,,0.00,WUHU216HW,2013-07-16 18:00:00,
2013-07-16 14:05:00,97.0,70.7,29.94,North,0,0.0,0.0,43,0.00,,,0.00,WUHU216HW,2013-07-16 18:05:00,
2013-07-16 14:10:00,96.5,70.3,29.94,North,0,0.0,0.0,43,0.00,,,0.00,WUHU216HW,2013-07-16 18:10:00,
2013-07-16 14:15:00,95.9,70.5,29.94,North,0,0.0,0.0,44,0.00,,,0.00,WUHU216HW,2013-07-16 18:15:00,
2013-07-16 14:20:00,96.1,71.3,29.94,North,0,0.0,0.0,45,0.00,,,0.00,WUHU216HW,2013-07-16 18:20:00,
2013-07-16 14:25:00,95.6,70.7,29.94,North,0,0.0,0.0,45,0.00,,,0.00,WUHU216HW,2013-07-16 18:25:00,
2013-07-16 14:30:00,95.2,71.1,29.94,North,0,0.0,0.0,46,0.00,,,0.00,WUHU216HW,2013-07-16 18:30:00,
2013-07-16 14:36:00,95.4,70.7,29.94,North,0,0.0,0.0,45,0.00,,,0.00,WUHU216HW,2013-07-16 18:36:00,
2013-07-16 14:41:00,95.4,69.3,29.94,North,0,0.0,0.0,43,0.00,,,0.00,WUHU216HW,2013-07-16 18:41:00,
2013-07-16 14:46:00,95.6,70.7,29.94,North,0,0.0,0.0,45,0.00,,,0.00,WUHU216HW,2013-07-16 18:46:00,
2013-07-16 14:50:00,95.4,70.7,29.94,North,0,0.0,0.0,45,0.00,,,0.00,WUHU216HW,2013-07-16 18:50:00,
2013-07-16 14:55:00,95.8,70.9,29.94,North,0,0.0,0.0,45,0.00,,,0.00,WUHU216HW,2013-07-16 18:55:00,
2013-07-16 15:00:00,96.5,71.6,29.94,North,0,0.0,0.0,45,0.00,,,0.00,WUHU216HW,2013-07-16 19:00:00,
2013-07-16 15:05:00,97.0,70.1,29.94,North,0,0.0,0.0,42,0.00,,,0.00,WUHU216HW,2013-07-16 19:05:00,
2013-07-16 15:10:00,96.1,69.3,29.94,North,0,0.0,0.0,42,0.00,,,0.00,WUHU216HW,2013-07-16 19:10:00,
2013-07-16 15:15:00,96.3,70.7,29.93,North,0,0.0,0.0,44,0.00,,,0.00,WUHU216HW,2013-07-16 19:15:00,
2013-07-16 15:20:00,96.8,70.6,29.93,North,0,0.0,0.0,43,0.00,,,0.00,WUHU216HW,2013-07-16 19:20:00,
2013-07-16 15:26:00,97.0,70.7,29.93,North,0,0.0,0.0,43,0.00,,,0.00,WUHU216HW,2013-07-16 19:26:00,
2013-07-16 15:31:00,96.8,69.2,29.93,North,0,0.0,0.0,41,0.00,,,0.00,WUHU216HW,2013-07-16 19:31:00,
2013-07-16 15:36:00,96.7,70.4,29.93,North,0,0.0,0.0,43,0.00,,,0.00,WUHU216HW,2013-07-16 19:36:00,
2013-07-16 15:41:00,96.5,70.3,29.93,North,0,0.0,0.0,43,0.00,,,0.00,WUHU216HW,2013-07-16 19:41:00,
2013-07-16 15:46:00,96.1,69.3,29.93,North,0,0.0,0.0,42,0.00,,,0.00,WUHU216HW,2013-07-16 19:46:00,
2013-07-16 15:51:00,95.8,69.6,29.93,North,0,0.0,0.0,43,0.00,,,0.00,WUHU216HW,2013-07-16 19:51:00,
2013-07-16 15:56:00,95.4,69.3,29.93,North,0,0.0,0.0,43,0.00,,,0.00,WUHU216HW,2013-07-16 19:56:00,
2013-07-16 16:01:00,95.4,69.9,29.93,North,0,0.0,0.0,44,0.00,,,0.00,WUHU216HW,2013-07-16 20:01:00,
2013-07-16 16:06:00,95.8,69.6,29.93,North,0,0.0,0.0,43,0.00,,,0.00,WUHU216HW,2013-07-16 20:06:00,
2013-07-16 16:11:00,95.6,69.5,29.93,North,0,0.0,0.0,43,0.00,,,0.00,WUHU216HW,2013-07-16 20:11:00,
2013-07-16 16:16:00,95.4,69.9,29.93,North,0,0.0,0.0,44,0.00,,,0.00,WUHU216HW,2013-07-16 20:16:00,
2013-07-16 16:21:00,94.5,68.5,29.93,North,0,0.0,0.0,43,0.00,,,0.00,WUHU216HW,2013-07-16 20:21:00,
2013-07-16 16:26:00,94.1,70.1,29.93,North,0,0.0,0.0,46,0.00,,,0.00,WUHU216HW,2013-07-16 20:26:00,
2013-07-16 16:31:00,94.3,69.6,29.93,North,0,0.0,0.0,45,0.00,,,0.00,WUHU216HW,2013-07-16 20:31:00,
2013-07-16 16:36:00,94.1,69.5,29.93,North,0,0.0,0.0,45,0.00,,,0.00,WUHU216HW,2013-07-16 20:36:00,
2013-07-16 16:41:00,94.1,69.5,29.93,North,0,0.0,0.0,45,0.00,,,0.00,WUHU216HW,2013-07-16 20:41:00,
2013-07-16 17:00:00,93.2,68.6,29.93,North,0,0.0,0.0,45,0.00,,,0.00,WUHU216HW,2013-07-16 21:00:00,
2013-07-16 17:05:00,93.1,69.0,29.93,North,0,0.0,0.0,46,0.00,,,0.00,WUHU216HW,2013-07-16 21:05:00,
2013-07-16 17:10:00,93.2,69.2,29.93,North,0,0.0,0.0,46,0.00,,,0.00,WUHU216HW,2013-07-16 21:10:00,
2013-07-16 17:15:00,93.4,70.0,29.93,North,0,0.0,0.0,47,0.00,,,0.00,WUHU216HW,2013-07-16 21:15:00,
2013-07-16 17:20:00,93.4,69.4,29.93,North,0,0.0,0.0,46,0.00,,,0.00,WUHU216HW,2013-07-16 21:20:00,
2013-07-16 17:25:00,93.6,70.2,29.93,North,0,0.0,0.0,47,0.00,,,0.00,WUHU216HW,2013-07-16 21:25:00,
2013-07-16 17:30:00,93.8,70.4,29.92,North,0,0.0,0.0,47,0.00,,,0.00,WUHU216HW,2013-07-16 21:30:00,
2013-07-16 17:35:00,94.0,70.6,29.92,North,0,0.0,0.0,47,0.00,,,0.00,WUHU216HW,2013-07-16 21:35:00,
2013-07-16 17:40:00,94.0,69.9,29.92,North,0,0.0,0.0,46,0.00,,,0.00,WUHU216HW,2013-07-16 21:40:00,
2013-07-16 17:45:00,94.0,69.9,29.92,North,0,0.0,0.0,46,0.00,,,0.00,WUHU216HW,2013-07-16 21:45:00,
2013-07-16 18:00:00,91.8,69.8,29.93,North,0,0.0,0.0,49,0.00,,,0.00,WUHU216HW,2013-07-16 22:00:00,
2013-07-16 18:05:00,91.4,69.6,29.93,North,0,0.0,0.0,49,0.00,,,0.00,WUHU216HW,2013-07-16 22:05:00,
2013-07-16 18:10:00,91.1,69.8,29.93,North,0,0.0,0.0,50,0.00,,,0.00,WUHU216HW,2013-07-16 22:10:00,
2013-07-16 18:15:00,90.9,69.8,29.92,North,0,0.0,0.0,50,0.00,,,0.00,WUHU216HW,2013-07-16 22:15:00,
2013-07-16 18:20:00,90.9,69.8,29.93,North,0,0.0,0.0,50,0.00,,,0.00,WUHU216HW,2013-07-16 22:20:00,
2013-07-16 18:25:00,90.5,69.4,29.93,North,0,0.0,0.0,50,0.00,,,0.00,WUHU216HW,2013-07-16 22:25:00,
2013-07-16 18:30:00,90.2,69.6,29.93,North,0,0.0,0.0,51,0.00,,,0.00,WUHU216HW,2013-07-16 22:30:00,
2013-07-16 18:35:00,89.8,69.3,29.93,North,0,0.0,0.0,51,0.00,,,0.00,WUHU216HW,2013-07-16 22:35:00,
2013-07-16 18:40:00,89.8,69.3,29.93,North,0,0.0,0.0,51,0.00,,,0.00,WUHU216HW,2013-07-16 22:40:00,
2013-07-16 19:00:00,88.0,68.8,29.93,North,0,0.0,0.0,53,0.00,,,0.00,WUHU216HW,2013-07-16 23:00:00,
2013-07-16 19:05:00,87.8,68.6,29.93,North,0,0.0,0.0,53,0.00,,,0.00,WUHU216HW,2013-07-16 23:05:00,
2013-07-16 19:10:00,87.5,68.8,29.93,North,0,0.0,0.0,54,0.00,,,0.00,WUHU216HW,2013-07-16 23:10:00,
2013-07-16 19:15:00,87.3,68.6,29.93,North,0,0.0,0.0,54,0.00,,,0.00,WUHU216HW,2013-07-16 23:15:00,
2013-07-16 19:20:00,87.1,68.4,29.93,North,0,0.0,0.0,54,0.00,,,0.00,WUHU216HW,2013-07-16 23:20:00,
2013-07-16 19:25:00,86.8,68.7,29.93,North,0,0.0,0.0,55,0.00,,,0.00,WUHU216HW,2013-07-16 23:25:00,
2013-07-16 19:30:00,86.6,68.5,29.93,North,0,0.0,0.0,55,0.00,,,0.00,WUHU216HW,2013-07-16 23:30:00,
2013-07-16 19:35:00,86.4,68.9,29.93,North,0,0.0,0.0,56,0.00,,,0.00,WUHU216HW,2013-07-16 23:35:00,
2013-07-16 19:40:00,86.4,68.9,29.93,North,0,0.0,0.0,56,0.00,,,0.00,WUHU216HW,2013-07-16 23:40:00,
2013-07-16 20:00:00,84.6,68.8,29.94,North,0,0.0,0.0,59,0.00,,,0.00,WUHU216HW,2013-07-17 00:00:00,
2013-07-16 20:05:00,83.9,68.6,29.94,North,0,0.0,0.0,60,0.00,,,0.00,WUHU216HW,2013-07-17 00:05:00,
2013-07-16 20:10:00,83.5,68.2,29.94,North,0,0.0,0.0,60,0.00,,,0.00,WUHU216HW,2013-07-17 00:10:00,
2013-07-16 20:15:00,82.8,67.5,29.94,North,0,0.0,0.0,60,0.00,,,0.00,WUHU216HW,2013-07-17 00:15:00,
2013-07-16 20:20:00,82.1,67.2,29.94,North,0,0.0,0.0,61,0.00,,,0.00,WUHU216HW,2013-07-17 00:20:00,
2013-07-16 20:25:00,81.2,66.9,29.94,North,0,0.0,0.0,62,0.00,,,0.00,WUHU216HW,2013-07-17 00:25:00,
2013-07-16 20:30:00,80.5,66.7,29.94,North,0,0.0,0.0,63,0.00,,,0.00,WUHU216HW,2013-07-17 00:30:00,
2013-07-16 20:33:00,80.1,66.3,29.95,North,0,0.0,0.0,63,0.00,,,0.00,WUHU216HW,2013-07-17 00:33:00,
2013-07-16 20:35:00,80.1,66.3,29.95,North,0,0.0,0.0,63,0.00,,,0.00,WUHU216HW,2013-07-17 00:35:00,
2013-07-16 20:40:00,80.1,66.3,29.95,North,0,0.0,0.0,63,0.00,,,0.00,WUHU216HW,2013-07-17 00:40:00,
2013-07-16 21:00:00,77.6,64.9,29.95,North,0,0.0,0.0,65,0.00,,,0.00,WUHU216HW,2013-07-17 01:00:00,
2013-07-16 21:05:00,77.4,64.7,29.95,North,0,0.0,0.0,65,0.00,,,0.00,WUHU216HW,2013-07-17 01:05:00,
2013-07-16 21:10:00,76.9,64.2,29.95,North,0,0.0,0.0,65,0.00,,,0.00,WUHU216HW,2013-07-17 01:10:00,
2013-07-16 21:15:00,76.5,63.8,29.95,North,0,0.0,0.0,65,0.00,,,0.00,WUHU216HW,2013-07-17 01:15:00,
2013-07-16 21:20:00,76.1,63.9,29.95,North,0,0.0,0.0,66,0.00,,,0.00,WUHU216HW,2013-07-17 01:20:00,
2013-07-16 21:25:00,75.8,63.6,29.95,North,0,0.0,0.0,66,0.00,,,0.00,WUHU216HW,2013-07-17 01:25:00,
2013-07-16 21:30:00,75.2,63.1,29.96,North,0,0.0,0.0,66,0.00,,,0.00,WUHU216HW,2013-07-17 01:30:00,
2013-07-16 21:35:00,74.9,62.7,29.96,North,0,0.0,0.0,66,0.00,,,0.00,WUHU216HW,2013-07-17 01:35:00,
2013-07-16 21:40:00,74.5,62.4,29.96,North,0,0.0,0.0,66,0.00,,,0.00,WUHU216HW,2013-07-17 01:40:00,
2013-07-16 21:45:00,74.2,62.5,29.96,North,0,0.0,0.0,67,0.00,,,0.00,WUHU216HW,2013-07-17 01:45:00,
2013-07-16 21:50:00,73.6,62.0,29.96,North,0,0.0,0.0,67,0.00,,,0.00,WUHU216HW,2013-07-17 01:50:00,
2013-07-16 21:55:00,73.4,62.3,29.96,North,0,0.0,0.0,68,0.00,,,0.00,WUHU216HW,2013-07-17 01:55:00,
2013-07-16 22:00:00,73.1,61.9,29.96,North,0,0.0,0.0,68,0.00,,,0.00,WUHU216HW,2013-07-17 02:00:00,
2013-07-16 22:05:00,72.9,61.7,29.96,North,0,0.0,0.0,68,0.00,,,0.00,WUHU216HW,2013-07-17 02:05:00,
2013-07-16 22:10:00,72.4,61.7,29.96,North,0,0.0,0.0,69,0.00,,,0.00,WUHU216HW,2013-07-17 02:10:00,
2013-07-16 22:15:00,72.0,61.3,29.96,North,0,0.0,0.0,69,0.00,,,0.00,WUHU216HW,2013-07-17 02:15:00,
2013-07-16 22:20:00,71.6,60.9,29.96,North,0,0.0,0.0,69,0.00,,,0.00,WUHU216HW,2013-07-17 02:20:00,
2013-07-16 22:25:00,71.5,60.8,29.97,North,0,0.0,0.0,69,0.00,,,0.00,WUHU216HW,2013-07-17 02:25:00,
2013-07-16 22:30:00,71.3,61.0,29.96,North,0,0.0,0.0,70,0.00,,,0.00,WUHU216HW,2013-07-17 02:30:00,
2013-07-16 22:35:00,71.1,60.8,29.96,North,0,0.0,0.0,70,0.00,,,0.00,WUHU216HW,2013-07-17 02:35:00,
2013-07-16 22:40:00,70.9,60.7,29.96,North,0,0.0,0.0,70,0.00,,,0.00,WUHU216HW,2013-07-17 02:40:00,
2013-07-16 22:45:00,70.7,60.5,29.97,North,0,0.0,0.0,70,0.00,,,0.00,WUHU216HW,2013-07-17 02:45:00,
2013-07-16 22:50:00,70.6,60.7,29.97,North,0,0.0,0.0,71,0.00,,,0.00,WUHU216HW,2013-07-17 02:50:00,
2013-07-16 22:55:00,70.6,60.7,29.97,North,0,0.0,0.0,71,0.00,,,0.00,WUHU216HW,2013-07-17 02:55:00,
2013-07-16 23:00:00,69.8,60.3,29.97,North,0,0.0,0.0,72,0.00,,,0.00,WUHU216HW,2013-07-17 03:00:00,
2013-07-16 23:05:00,69.8,60.3,29.97,North,0,0.0,0.0,72,0.00,,,0.00,WUHU216HW,2013-07-17 03:05:00,
2013-07-16 23:10:00,69.8,60.3,29.97,North,0,0.0,0.0,72,0.00,,,0.00,WUHU216HW,2013-07-17 03:10:00,
2013-07-16 23:15:00,69.7,60.2,29.97,North,0,0.0,0.0,72,0.00,,,0.00,WUHU216HW,2013-07-17 03:15:00,
2013-07-16 23:20:00,69.8,60.8,29.97,North,0,0.0,0.0,73,0.00,,,0.00,WUHU216HW,2013-07-17 03:20:00,
2013-07-16 23:25:00,69.5,60.4,29.97,North,0,0.0,0.0,73,0.00,,,0.00,WUHU216HW,2013-07-17 03:25:00,
2013-07-16 23:30:00,69.3,60.6,29.97,North,0,0.0,0.0,74,0.00,,,0.00,WUHU216HW,2013-07-17 03:30:00,
2013-07-16 23:35:00,69.5,60.8,29.97,North,0,0.0,0.0,74,0.00,,,0.00,WUHU216HW,2013-07-17 03:35:00,
2013-07-16 23:40:00,69.5,60.8,29.97,North,0,0.0,0.0,74,0.00,,,0.00,WUHU216HW,2013-07-17 03:40:00,
2013-07-16 23:42:00,69.5,60.8,29.97,North,0,0.0,0.0,74,0.00,,,0.00,WUHU216HW,2013-07-17 03:42:00,